Location: Bletchingley
(51.2333°N, 0.1000°W)
Time: 13:02:27
(UTC+00:00)

Okean 2 Rocket - Pass Details

Date: 18 September 2020
Orbit: 616 x 642 km, 82.5° (Epoch: 25 October)

Event Time Altitude Azimuth Distance (km) Brightness Sun altitude
Rises 19:41:15 0° 187° (S) 2,934 6.4 -15.2°
Reaches altitude 10° 19:43:29 10° 187° (S) 2,027 5.5 -15.5°
Maximum altitude 19:48:00 87° 98° (E) 645 3.0 -16.2°
Drops below altitude 10° 19:52:31 10° 11° (N) 2,030 5.9 -16.8°
Sets 19:54:45 0° 11° (NNE) 2,938 6.7 -17.1°
